Tracking 27172 objects as of 2-Apr-2023
HD Live streaming from Space Station
objects crossing your sky now

DELTA 2 R/B(1)

Track DELTA 2 R/B(1) now!
10-day predictions


NORAD ID: 22015
Int'l Code: 1992-039B
Perigee: 457.2 km
Apogee: 506.2 km
Inclination: 20.7 °
Period: 94.1 minutes
Semi major axis: 6852 km
RCS: 9.3859 m2 (large)
Launch date: July 7, 1992
Source: United States (US)
Launch site: AIR FORCE EASTERN TEST RANGE (AFETR)

Note: This is a ROCKET BODY
Your satellite tracking list
Your tracking list is empty




NASA's NSSDC Master Catalog

Two Line Element Set (TLE):
1 22015U 92039B   23091.91508272  .00022295  00000-0  69765-3 0  9998
2 22015  20.7123 300.9298 0035735 258.8166 100.8257 15.30415233712579
Source of the keplerian elements: AFSPC